Weather Roundup
Issued by NWS Chicago, IL

Home | Current Version | Previous Version | Graphics & Text | Print | Product List | Glossary On
Versions: 1 2 3 4 5 6 7 8 9 10 11 12 13 14 15 16 17 18 19 20 21 22 23 24 25 26 27 28 29 30 31 32 33 34 35 36 37 38 39 40 41 42 43 44 45 46 47 48 49 50
000
NZUS59 KLOT 071912
HRRLOT

CHICAGO AREA WEATHER ROUNDUP
NATIONAL WEATHER SERVICE CHICAGO/ROMEOVILLE IL
200 PM CDT TUE JUL 07 2015

NOTE: "FAIR" INDICATES FEW OR NO CLOUDS BELOW 12,000 FEET WITH NO
SIGNIFICANT WEATHER AND/OR OBSTRUCTIONS TO VISIBILITY.

* THESE STATIONS ARE NOT UNDER NWS QUALITY CONTROL. THEY ALSO MAY NOT
  REPORT WEATHER SUCH AS PRECIPITATION OR FOG.

ILZ005-006-012>014-019>023-072000-
NORTHEAST ILLINOIS

CITY           SKY/WX    TMP DP  RH WIND       PRES   REMARKS
OHARE          MOSUNNY   67  46  47 NE20G28   30.03R
MIDWAY         MOSUNNY   68  46  45 NE22G29   30.03R
AURORA         PTSUNNY   71  55  56 N7        30.02S
LANSING*       MOSUNNY   63  49  60 N15G23    30.04R
JOLIET*        MOSUNNY   71  53  52 NE12G22   30.02S
WAUKEGAN       SUNNY     64  48  56 N21G30    30.03R
DUPAGE AIRPORT PTSUNNY   71  53  52 N13       30.02R
WHEELING       SUNNY     66  45  46 N15G24    30.05R
KANKAKEE*      CLOUDY    66  52  60 NE16G24   30.02R
MORRIS*        CLOUDY    69  55  59 E8        30.00S
LEWIS AIRPORT* SUNNY     68  49  50 NE13G18   30.02R
NORTHERLY IS     N/A     62  52  69 MISG        N/A
$$

WIZ051-052-058>065-066-070>072-072000-
SOUTHEAST WISCONSIN

CITY           SKY/WX    TMP DP  RH WIND       PRES   REMARKS
MILWAUKEE      MOSUNNY   65  49  56 N15       30.04R
KENOSHA*       MOSUNNY   68  52  56 NE14G22   30.04R
RACINE*        SUNNY     66  47  50 N20G26    30.06R
BURLINGTON     PTSUNNY   66  49  54 N9G18     30.03S
WAUKESHA       PTSUNNY   66  48  52 N12G18    30.05S
WEST BEND      CLOUDY    64  46  52 NW12      30.05R
$$

INZ001>003-010>013-019-020-072000-
NORTHWEST INDIANA

CITY           SKY/WX    TMP DP  RH WIND       PRES   REMARKS
GARY*          PTSUNNY   64  54  68 N17G30    30.05R
MICHIGAN CITY* NOT AVBL
RENSSELAER*    NOT AVBL
VALPARAISO     PTSUNNY   65  50  58 N18G28    30.01R
$$

LMZ740>746-072000-
SOUTHERN LAKE MICHIGAN

STATION/POSITION TIME  SKY/WX   TEMP WIND        PRES    VSBY
                                AIR  DIR/SP/G
                 (UTC)          (F)  (DEG/KT/KT) (MB)    (MI)
HARRISON CRIB    1800            58  360/ 25/ 29   N/A
BURNHAM HARBOR   1900            62  350/ 15/ 20   N/A
CALUMET HARBOR   1800            61  350/ 13/ 20   N/A
BURNS HARBOR     1840            59   10/ 18/ 23 1017.3R
MICHIGAN CITY    1800            59  350/ 23/ 26   N/A
$$

ABBREVIATIONS USED IN REMARKS
   TC - TEMPERATURE IN CELSIUS
  WCI - WIND CHILL INDEX
   HX - HEAT INDEX
  VSB - VISIBILITY
$$



USA.gov is the U.S. government's official web portal to all federal, state and local government web resources and services.